Time,TemperatureF,DewpointF,PressureIn,WindDirection,WindDirectionDegrees,WindSpeedMPH,WindSpeedGustMPH,Humidity,HourlyPrecipIn,Conditions,Clouds,dailyrainin,SoftwareType,DateUTC
2013-05-30 00:00:00,74.0,63.2,29.94,SE,142,0.0,4.0,69,0.00,,,0.00,VWS V14.01,2013-05-30 04:00:00,
2013-05-30 00:01:00,74.0,63.6,29.94,South,190,2.0,4.0,70,0.00,,,0.00,VWS V14.01,2013-05-30 04:01:00,
2013-05-30 00:06:00,73.9,63.5,29.94,South,177,1.0,4.0,70,0.00,,,0.00,VWS V14.01,2013-05-30 04:06:00,
2013-05-30 00:11:00,73.8,63.4,29.94,SSE,159,1.0,4.0,70,0.00,,,0.00,VWS V14.01,2013-05-30 04:11:00,
2013-05-30 00:16:00,73.6,63.2,29.94,SSE,162,3.0,4.0,70,0.00,,,0.00,VWS V14.01,2013-05-30 04:16:00,
2013-05-30 00:21:00,73.6,63.6,29.94,SE,131,2.0,4.0,71,0.00,,,0.00,VWS V14.01,2013-05-30 04:21:00,
2013-05-30 00:26:00,73.6,63.6,29.94,SSE,149,2.0,4.0,71,0.00,,,0.00,VWS V14.01,2013-05-30 04:26:00,
2013-05-30 00:30:00,73.6,63.6,29.94,South,187,3.0,4.0,71,0.00,,,0.00,VWS V14.01,2013-05-30 04:30:00,
2013-05-30 00:31:00,73.5,63.5,29.94,SSE,150,2.0,4.0,71,0.00,,,0.00,VWS V14.01,2013-05-30 04:31:00,
2013-05-30 00:36:00,73.6,63.6,29.94,South,190,3.0,4.0,71,0.00,,,0.00,VWS V14.01,2013-05-30 04:36:00,
2013-05-30 00:41:00,73.7,64.1,29.95,South,176,2.0,6.0,72,0.00,,,0.00,VWS V14.01,2013-05-30 04:41:00,
2013-05-30 00:46:00,73.6,64.0,29.94,SE,145,1.0,6.0,72,0.00,,,0.00,VWS V14.01,2013-05-30 04:46:00,
2013-05-30 00:51:00,73.5,63.9,29.95,SE,134,2.0,6.0,72,0.00,,,0.00,VWS V14.01,2013-05-30 04:51:00,
2013-05-30 00:56:00,73.5,63.9,29.95,SE,134,1.0,6.0,72,0.00,,,0.00,VWS V14.01,2013-05-30 04:56:00,
2013-05-30 01:00:00,73.5,63.9,29.95,SE,136,2.0,6.0,72,0.00,,,0.00,VWS V14.01,2013-05-30 05:00:00,
2013-05-30 01:01:00,73.4,63.8,29.95,SSE,148,2.0,3.0,72,0.00,,,0.00,VWS V14.01,2013-05-30 05:01:00,
2013-05-30 01:06:00,73.4,64.2,29.95,South,173,0.0,5.0,73,0.00,,,0.00,VWS V14.01,2013-05-30 05:06:00,
2013-05-30 01:11:00,73.2,64.0,29.95,South,185,3.0,5.0,73,0.00,,,0.00,VWS V14.01,2013-05-30 05:11:00,
2013-05-30 01:16:00,73.1,63.9,29.95,SSW,203,2.0,6.0,73,0.00,,,0.00,VWS V14.01,2013-05-30 05:16:00,
2013-05-30 01:21:00,73.1,64.3,29.95,SSE,167,0.0,6.0,74,0.00,,,0.00,VWS V14.01,2013-05-30 05:21:00,
2013-05-30 01:26:00,72.9,64.1,29.96,SSE,148,3.0,6.0,74,0.00,,,0.00,VWS V14.01,2013-05-30 05:26:00,
2013-05-30 01:30:00,72.9,64.1,29.96,SE,134,4.0,6.0,74,0.00,,,0.00,VWS V14.01,2013-05-30 05:30:00,
2013-05-30 01:31:00,72.9,64.1,29.95,SSE,155,2.0,4.0,74,0.00,,,0.00,VWS V14.01,2013-05-30 05:31:00,
2013-05-30 01:36:00,72.8,64.0,29.95,SSE,167,2.0,5.0,74,0.00,,,0.00,VWS V14.01,2013-05-30 05:36:00,
2013-05-30 01:41:00,72.7,64.3,29.95,SE,126,0.0,5.0,75,0.00,,,0.00,VWS V14.01,2013-05-30 05:41:00,
2013-05-30 01:46:00,72.7,64.3,29.95,SE,142,2.0,5.0,75,0.00,,,0.00,VWS V14.01,2013-05-30 05:46:00,
2013-05-30 01:51:00,72.6,64.0,29.95,SSW,204,1.0,4.0,75,0.00,,,0.00,weatherlink.com 1.10,2013-05-30 05:51:00,
2013-05-30 01:56:00,72.6,64.2,29.95,SE,142,2.0,5.0,75,0.00,,,0.00,VWS V14.01,2013-05-30 05:56:00,
2013-05-30 02:00:00,72.6,64.2,29.95,SSE,163,0.0,5.0,75,0.00,,,0.00,VWS V14.01,2013-05-30 06:00:00,
2013-05-30 02:01:00,72.5,64.1,29.96,SE,134,2.0,2.0,75,0.00,,,0.00,VWS V14.01,2013-05-30 06:01:00,
2013-05-30 02:06:00,72.5,64.5,29.95,SE,142,2.0,3.0,76,0.00,,,0.00,VWS V14.01,2013-05-30 06:06:00,
2013-05-30 02:11:00,72.4,64.4,29.95,SSE,148,0.0,3.0,76,0.00,,,0.00,VWS V14.01,2013-05-30 06:11:00,
2013-05-30 02:16:00,72.3,64.3,29.96,SE,136,3.0,4.0,76,0.00,,,0.00,VWS V14.01,2013-05-30 06:16:00,
2013-05-30 02:21:00,72.3,64.3,29.96,SE,142,1.0,4.0,76,0.00,,,0.00,VWS V14.01,2013-05-30 06:21:00,
2013-05-30 02:26:00,72.1,64.5,29.96,SE,139,0.0,4.0,77,0.00,,,0.00,VWS V14.01,2013-05-30 06:26:00,
2013-05-30 02:30:00,72.1,64.5,29.96,SE,139,1.0,4.0,77,0.00,,,0.00,VWS V14.01,2013-05-30 06:30:00,
2013-05-30 02:31:00,72.0,64.4,29.96,SE,139,2.0,2.0,77,0.00,,,0.00,VWS V14.01,2013-05-30 06:31:00,
2013-05-30 02:36:00,72.0,64.4,29.96,SSE,150,0.0,4.0,77,0.00,,,0.00,VWS V14.01,2013-05-30 06:36:00,
2013-05-30 02:41:00,71.8,64.6,29.96,SE,142,1.0,4.0,78,0.00,,,0.00,VWS V14.01,2013-05-30 06:41:00,
2013-05-30 02:46:00,71.6,64.4,29.96,SE,128,1.0,4.0,78,0.00,,,0.00,VWS V14.01,2013-05-30 06:46:00,
2013-05-30 02:51:00,71.5,64.3,29.96,SE,142,0.0,4.0,78,0.00,,,0.00,VWS V14.01,2013-05-30 06:51:00,
2013-05-30 02:56:00,71.3,64.5,29.96,SE,139,0.0,4.0,79,0.00,,,0.00,VWS V14.01,2013-05-30 06:56:00,
2013-05-30 03:00:00,71.3,64.5,29.96,SE,140,0.0,4.0,79,0.00,,,0.00,VWS V14.01,2013-05-30 07:00:00,
2013-05-30 03:01:00,71.0,64.2,29.96,SE,131,0.0,0.0,79,0.00,,,0.00,VWS V14.01,2013-05-30 07:01:00,
2013-05-30 03:06:00,70.9,64.4,29.96,SSE,148,0.0,2.0,80,0.00,,,0.00,VWS V14.01,2013-05-30 07:06:00,
2013-05-30 03:11:00,70.8,64.3,29.96,SSE,167,1.0,2.0,80,0.00,,,0.00,VWS V14.01,2013-05-30 07:11:00,
2013-05-30 03:16:00,70.7,64.2,29.95,SE,128,1.0,3.0,80,0.00,,,0.00,VWS V14.01,2013-05-30 07:16:00,
2013-05-30 03:21:00,70.6,64.5,29.95,SE,140,1.0,3.0,81,0.00,,,0.00,VWS V14.01,2013-05-30 07:21:00,
2013-05-30 03:26:00,70.5,64.4,29.95,SE,142,1.0,3.0,81,0.00,,,0.00,VWS V14.01,2013-05-30 07:26:00,
2013-05-30 03:30:00,70.5,64.4,29.95,SE,139,0.0,3.0,81,0.00,,,0.00,VWS V14.01,2013-05-30 07:30:00,
2013-05-30 03:31:00,70.3,64.2,29.95,SE,131,0.0,1.0,81,0.00,,,0.00,VWS V14.01,2013-05-30 07:31:00,
2013-05-30 03:36:00,70.2,64.1,29.95,SE,139,0.0,1.0,81,0.00,,,0.00,VWS V14.01,2013-05-30 07:36:00,
2013-05-30 03:41:00,70.0,64.3,29.95,SSE,162,1.0,2.0,82,0.00,,,0.00,VWS V14.01,2013-05-30 07:41:00,
2013-05-30 03:46:00,69.9,64.2,29.95,SE,133,1.0,2.0,82,0.00,,,0.00,VWS V14.01,2013-05-30 07:46:00,
2013-05-30 03:51:00,69.9,64.2,29.95,SE,133,1.0,2.0,82,0.00,,,0.00,VWS V14.01,2013-05-30 07:51:00,
2013-05-30 03:56:00,69.7,64.3,29.95,SSE,148,2.0,3.0,83,0.00,,,0.00,VWS V14.01,2013-05-30 07:56:00,
2013-05-30 04:00:00,69.7,64.3,29.95,SE,131,1.0,3.0,83,0.00,,,0.00,VWS V14.01,2013-05-30 08:00:00,
2013-05-30 04:01:00,69.7,64.3,29.95,SE,132,0.0,2.0,83,0.00,,,0.00,VWS V14.01,2013-05-30 08:01:00,
2013-05-30 04:06:00,69.5,64.1,29.95,SE,131,0.0,2.0,83,0.00,,,0.00,VWS V14.01,2013-05-30 08:06:00,
2013-05-30 04:11:00,69.4,64.0,29.95,SE,132,0.0,2.0,83,0.00,,,0.00,VWS V14.01,2013-05-30 08:11:00,
2013-05-30 04:16:00,69.3,64.3,29.95,SE,140,1.0,2.0,84,0.00,,,0.00,VWS V14.01,2013-05-30 08:16:00,
2013-05-30 04:21:00,69.3,64.3,29.95,SE,139,0.0,2.0,84,0.00,,,0.00,VWS V14.01,2013-05-30 08:21:00,
2013-05-30 04:26:00,69.2,64.2,29.95,SE,140,1.0,2.0,84,0.00,,,0.00,VWS V14.01,2013-05-30 08:26:00,
2013-05-30 04:30:00,69.2,64.2,29.95,SE,139,0.0,2.0,84,0.00,,,0.00,VWS V14.01,2013-05-30 08:30:00,
2013-05-30 04:31:00,69.1,64.1,29.95,SE,145,0.0,3.0,84,0.00,,,0.00,VWS V14.01,2013-05-30 08:31:00,
2013-05-30 04:36:00,69.1,64.1,29.95,SE,131,2.0,4.0,84,0.00,,,0.00,VWS V14.01,2013-05-30 08:36:00,
2013-05-30 04:41:00,69.1,64.1,29.95,SE,133,1.0,4.0,84,0.00,,,0.00,VWS V14.01,2013-05-30 08:41:00,
2013-05-30 04:46:00,69.0,64.0,29.95,SE,134,3.0,4.0,84,0.00,,,0.00,VWS V14.01,2013-05-30 08:46:00,
2013-05-30 04:51:00,68.9,63.9,29.95,SE,128,2.0,4.0,84,0.00,,,0.00,VWS V14.01,2013-05-30 08:51:00,
2013-05-30 04:56:00,68.9,63.9,29.95,SE,136,4.0,4.0,84,0.00,,,0.00,VWS V14.01,2013-05-30 08:56:00,
2013-05-30 05:00:00,68.9,63.9,29.95,SE,134,1.0,4.0,84,0.00,,,0.00,VWS V14.01,2013-05-30 09:00:00,
2013-05-30 05:01:00,68.9,63.9,29.96,ESE,118,2.0,3.0,84,0.00,,,0.00,VWS V14.01,2013-05-30 09:01:00,
2013-05-30 05:06:00,68.9,64.2,29.95,SE,125,3.0,3.0,85,0.00,,,0.00,VWS V14.01,2013-05-30 09:06:00,
2013-05-30 05:11:00,69.0,64.0,29.96,SSE,148,1.0,3.0,84,0.00,,,0.00,VWS V14.01,2013-05-30 09:11:00,
2013-05-30 05:16:00,69.2,64.2,29.96,SE,145,2.0,4.0,84,0.00,,,0.00,VWS V14.01,2013-05-30 09:16:00,
2013-05-30 05:21:00,69.4,64.4,29.96,SE,125,1.0,4.0,84,0.00,,,0.00,VWS V14.01,2013-05-30 09:21:00,
2013-05-30 05:26:00,69.5,64.1,29.96,SSE,159,3.0,4.0,83,0.00,,,0.00,VWS V14.01,2013-05-30 09:26:00,
2013-05-30 05:30:00,69.5,64.1,29.96,SSE,165,1.0,4.0,83,0.00,,,0.00,VWS V14.01,2013-05-30 09:30:00,
2013-05-30 05:31:00,69.5,64.1,29.96,SSE,158,1.0,3.0,83,0.00,,,0.00,VWS V14.01,2013-05-30 09:31:00,
2013-05-30 05:36:00,69.6,64.2,29.97,SE,142,2.0,5.0,83,0.00,,,0.00,VWS V14.01,2013-05-30 09:36:00,
2013-05-30 05:41:00,69.6,64.2,29.97,ESE,107,2.0,5.0,83,0.00,,,0.00,VWS V14.01,2013-05-30 09:41:00,
2013-05-30 05:46:00,69.7,64.3,29.97,SE,142,3.0,5.0,83,0.00,,,0.00,VWS V14.01,2013-05-30 09:46:00,
2013-05-30 05:51:00,69.7,64.3,29.96,SE,139,1.0,5.0,83,0.00,,,0.00,VWS V14.01,2013-05-30 09:51:00,
2013-05-30 05:56:00,69.7,64.3,29.97,SSE,152,5.0,5.0,83,0.00,,,0.00,VWS V14.01,2013-05-30 09:56:00,
2013-05-30 06:00:00,69.7,64.3,29.97,SE,125,2.0,6.0,83,0.00,,,0.00,VWS V14.01,2013-05-30 10:00:00,
2013-05-30 06:01:00,69.8,64.4,29.97,SSE,150,1.0,4.0,83,0.00,,,0.00,VWS V14.01,2013-05-30 10:01:00,
2013-05-30 06:06:00,69.8,64.4,29.97,South,176,2.0,5.0,83,0.00,,,0.00,VWS V14.01,2013-05-30 10:06:00,
2013-05-30 06:11:00,69.9,64.2,29.97,SE,128,1.0,5.0,82,0.00,,,0.00,VWS V14.01,2013-05-30 10:11:00,
2013-05-30 06:16:00,70.0,64.3,29.97,SE,142,2.0,5.0,82,0.00,,,0.00,VWS V14.01,2013-05-30 10:16:00,
2013-05-30 06:21:00,70.0,64.3,29.97,SE,145,1.0,7.0,82,0.00,,,0.00,VWS V14.01,2013-05-30 10:21:00,
2013-05-30 06:26:00,70.0,64.3,29.98,SE,139,2.0,7.0,82,0.00,,,0.00,VWS V14.01,2013-05-30 10:26:00,
2013-05-30 06:30:00,70.0,64.3,29.98,South,186,1.0,7.0,82,0.00,,,0.00,VWS V14.01,2013-05-30 10:30:00,
2013-05-30 06:31:00,70.0,64.3,29.98,SE,141,1.0,4.0,82,0.00,,,0.00,VWS V14.01,2013-05-30 10:31:00,
2013-05-30 06:36:00,69.9,64.2,29.98,SE,146,3.0,4.0,82,0.00,,,0.00,VWS V14.01,2013-05-30 10:36:00,
2013-05-30 06:41:00,70.0,64.3,29.98,ESE,116,4.0,5.0,82,0.00,,,0.00,VWS V14.01,2013-05-30 10:41:00,
2013-05-30 06:46:00,70.1,64.4,29.98,SE,133,2.0,5.0,82,0.00,,,0.00,VWS V14.01,2013-05-30 10:46:00,
2013-05-30 06:51:00,70.2,64.4,29.98,SE,125,3.0,5.0,82,0.00,,,0.00,VWS V14.01,2013-05-30 10:51:00,
2013-05-30 06:56:00,70.3,64.6,29.98,SSE,148,4.0,6.0,82,0.00,,,0.00,VWS V14.01,2013-05-30 10:56:00,
2013-05-30 07:00:00,70.3,64.6,29.98,SSE,150,2.0,6.0,82,0.00,,,0.00,VWS V14.01,2013-05-30 11:00:00,
2013-05-30 07:01:00,70.4,64.7,29.98,SSE,159,2.0,5.0,82,0.00,,,0.00,VWS V14.01,2013-05-30 11:01:00,
2013-05-30 07:06:00,70.5,64.4,29.98,SE,136,2.0,5.0,81,0.00,,,0.00,VWS V14.01,2013-05-30 11:06:00,
2013-05-30 07:11:00,70.6,64.5,29.99,South,181,1.0,5.0,81,0.00,,,0.00,VWS V14.01,2013-05-30 11:11:00,
2013-05-30 07:16:00,70.7,64.6,29.99,SSE,165,2.0,5.0,81,0.00,,,0.00,VWS V14.01,2013-05-30 11:16:00,
2013-05-30 07:21:00,70.9,64.8,29.99,SSE,159,0.0,5.0,81,0.00,,,0.00,VWS V14.01,2013-05-30 11:21:00,
2013-05-30 07:26:00,71.0,64.9,29.99,South,181,2.0,5.0,81,0.00,,,0.00,VWS V14.01,2013-05-30 11:26:00,
2013-05-30 07:30:00,71.0,64.9,29.99,East,98,2.0,5.0,81,0.00,,,0.00,VWS V14.01,2013-05-30 11:30:00,
2013-05-30 07:31:00,71.1,65.0,29.99,SSE,165,1.0,5.0,81,0.00,,,0.00,VWS V14.01,2013-05-30 11:31:00,
2013-05-30 07:36:00,71.2,64.7,29.99,SE,145,1.0,6.0,80,0.00,,,0.00,VWS V14.01,2013-05-30 11:36:00,
2013-05-30 07:41:00,71.4,64.9,29.99,SSE,165,4.0,6.0,80,0.00,,,0.00,VWS V14.01,2013-05-30 11:41:00,
2013-05-30 07:46:00,71.4,64.9,29.99,SE,128,2.0,7.0,80,0.00,,,0.00,VWS V14.01,2013-05-30 11:46:00,
2013-05-30 07:51:00,71.5,65.0,29.99,South,184,3.0,8.0,80,0.00,,,0.00,VWS V14.01,2013-05-30 11:51:00,
2013-05-30 07:56:00,71.5,65.0,29.99,SSE,160,3.0,8.0,80,0.00,,,0.00,VWS V14.01,2013-05-30 11:56:00,
2013-05-30 08:00:00,71.5,65.0,29.99,SSE,158,3.0,8.0,80,0.00,,,0.00,VWS V14.01,2013-05-30 12:00:00,
2013-05-30 08:01:00,71.6,65.1,29.99,SE,125,3.0,5.0,80,0.00,,,0.00,VWS V14.01,2013-05-30 12:01:00,
2013-05-30 08:06:00,71.6,65.1,29.99,SSE,160,3.0,9.0,80,0.00,,,0.00,VWS V14.01,2013-05-30 12:06:00,
2013-05-30 08:11:00,71.8,65.3,29.99,SE,142,1.0,9.0,80,0.00,,,0.00,VWS V14.01,2013-05-30 12:11:00,
2013-05-30 08:16:00,72.0,65.5,29.99,ESE,112,2.0,9.0,80,0.00,,,0.00,VWS V14.01,2013-05-30 12:16:00,
2013-05-30 08:21:00,72.3,65.4,29.99,SE,136,1.0,9.0,79,0.00,,,0.00,VWS V14.01,2013-05-30 12:21:00,
2013-05-30 08:26:00,72.6,65.7,29.99,SE,139,4.0,10.0,79,0.00,,,0.00,VWS V14.01,2013-05-30 12:26:00,
2013-05-30 08:30:00,72.6,65.7,29.99,SSE,155,4.0,10.0,79,0.00,,,0.00,VWS V14.01,2013-05-30 12:30:00,
2013-05-30 08:31:00,72.9,65.7,29.99,SSE,158,7.0,8.0,78,0.00,,,0.00,VWS V14.01,2013-05-30 12:31:00,
2013-05-30 08:36:00,73.1,65.8,29.99,SE,136,4.0,9.0,78,0.00,,,0.00,VWS V14.01,2013-05-30 12:36:00,
2013-05-30 08:41:00,73.4,66.1,29.99,SE,142,6.0,9.0,78,0.00,,,0.00,VWS V14.01,2013-05-30 12:41:00,
2013-05-30 08:46:00,73.7,66.1,29.99,ESE,122,3.0,9.0,77,0.00,,,0.00,VWS V14.01,2013-05-30 12:46:00,
2013-05-30 08:51:00,73.9,66.2,29.99,SW,214,1.0,11.0,77,0.00,,,0.00,VWS V14.01,2013-05-30 12:51:00,
2013-05-30 08:56:00,74.2,66.5,29.99,South,187,6.0,11.0,77,0.00,,,0.00,VWS V14.01,2013-05-30 12:56:00,
2013-05-30 09:00:00,74.2,66.5,29.99,SSE,166,7.0,11.0,77,0.00,,,0.00,VWS V14.01,2013-05-30 13:00:00,
2013-05-30 09:01:00,74.5,66.8,29.99,SE,133,7.0,7.0,77,0.00,,,0.00,VWS V14.01,2013-05-30 13:01:00,
2013-05-30 09:06:00,75.0,66.9,29.99,SSE,165,4.0,7.0,76,0.00,,,0.00,VWS V14.01,2013-05-30 13:06:00,
2013-05-30 09:11:00,75.5,67.0,29.99,SSW,203,5.0,13.0,75,0.00,,,0.00,VWS V14.01,2013-05-30 13:11:00,
2013-05-30 09:16:00,76.1,67.2,29.99,SE,131,10.0,13.0,74,0.00,,,0.00,VWS V14.01,2013-05-30 13:16:00,
2013-05-30 09:21:00,76.5,67.2,29.99,SE,146,6.0,13.0,73,0.00,,,0.00,VWS V14.01,2013-05-30 13:21:00,
2013-05-30 09:26:00,77.0,67.3,29.98,SE,128,3.0,13.0,72,0.00,,,0.00,VWS V14.01,2013-05-30 13:26:00,
2013-05-30 09:30:00,77.1,67.4,29.98,SE,139,9.0,13.0,72,0.00,,,0.00,VWS V14.01,2013-05-30 13:30:00,
2013-05-30 09:31:00,77.4,67.7,29.99,SE,145,4.0,12.0,72,0.00,,,0.00,VWS V14.01,2013-05-30 13:31:00,
2013-05-30 09:36:00,77.7,67.6,29.99,SSE,165,3.0,14.0,71,0.00,,,0.00,VWS V14.01,2013-05-30 13:36:00,
2013-05-30 09:41:00,77.9,67.8,29.99,SSW,201,3.0,14.0,71,0.00,,,0.00,VWS V14.01,2013-05-30 13:41:00,
2013-05-30 09:46:00,78.4,68.2,29.99,SSE,148,3.0,14.0,71,0.00,,,0.00,VWS V14.01,2013-05-30 13:46:00,
2013-05-30 09:51:00,78.8,68.2,29.99,West,263,2.0,14.0,70,0.00,,,0.00,VWS V14.01,2013-05-30 13:51:00,
2013-05-30 09:56:00,79.4,68.8,29.99,SSE,155,7.0,14.0,70,0.00,,,0.00,VWS V14.01,2013-05-30 13:56:00,
2013-05-30 10:00:00,79.5,68.4,29.99,WSW,243,9.0,14.0,69,0.00,,,0.00,VWS V14.01,2013-05-30 14:00:00,
2013-05-30 10:01:00,79.8,68.3,29.98,SE,146,2.0,13.0,68,0.00,,,0.00,VWS V14.01,2013-05-30 14:01:00,
2013-05-30 10:06:00,80.6,68.6,29.98,SSW,198,2.0,13.0,67,0.00,,,0.00,VWS V14.01,2013-05-30 14:06:00,
2013-05-30 10:11:00,80.8,68.4,29.98,ESE,115,8.0,13.0,66,0.00,,,0.00,VWS V14.01,2013-05-30 14:11:00,
2013-05-30 10:16:00,81.2,68.8,29.98,SE,129,8.0,13.0,66,0.00,,,0.00,VWS V14.01,2013-05-30 14:16:00,
2013-05-30 10:21:00,81.3,68.9,29.98,SSE,167,2.0,13.0,66,0.00,,,0.00,VWS V14.01,2013-05-30 14:21:00,
2013-05-30 10:26:00,81.8,69.3,29.98,SSW,200,4.0,13.0,66,0.00,,,0.00,VWS V14.01,2013-05-30 14:26:00,
2013-05-30 10:30:00,81.8,69.3,29.98,ESE,122,10.0,13.0,66,0.00,,,0.00,VWS V14.01,2013-05-30 14:30:00,
2013-05-30 10:31:00,81.8,68.9,29.98,South,172,5.0,14.0,65,0.00,,,0.00,VWS V14.01,2013-05-30 14:31:00,
2013-05-30 10:36:00,81.6,68.2,29.98,SSW,195,6.0,14.0,64,0.00,,,0.00,VWS V14.01,2013-05-30 14:36:00,
2013-05-30 10:41:00,81.8,69.3,29.98,WSW,238,5.0,14.0,66,0.00,,,0.00,VWS V14.01,2013-05-30 14:41:00,
2013-05-30 10:46:00,82.4,69.5,29.98,South,190,3.0,14.0,65,0.00,,,0.00,VWS V14.01,2013-05-30 14:46:00,
2013-05-30 10:51:00,82.7,69.3,29.97,SSE,166,12.0,14.0,64,0.00,,,0.00,VWS V14.01,2013-05-30 14:51:00,
2013-05-30 10:56:00,82.7,69.3,29.97,South,184,1.0,14.0,64,0.00,,,0.00,VWS V14.01,2013-05-30 14:56:00,
2013-05-30 11:00:00,82.8,69.4,29.97,SSW,203,7.0,14.0,64,0.00,,,0.00,VWS V14.01,2013-05-30 15:00:00,
2013-05-30 11:01:00,83.0,69.1,29.97,SSE,164,4.0,11.0,63,0.00,,,0.00,VWS V14.01,2013-05-30 15:01:00,
2013-05-30 11:06:00,82.8,68.5,29.97,SSE,160,4.0,13.0,62,0.00,,,0.00,VWS V14.01,2013-05-30 15:06:00,
2013-05-30 11:11:00,82.8,68.9,29.97,SE,134,9.0,17.0,63,0.00,,,0.00,VWS V14.01,2013-05-30 15:11:00,
2013-05-30 11:16:00,82.9,68.6,29.97,SW,233,6.0,17.0,62,0.00,,,0.00,VWS V14.01,2013-05-30 15:16:00,
2013-05-30 11:21:00,83.0,68.7,29.97,SE,142,8.0,17.0,62,0.00,,,0.00,VWS V14.01,2013-05-30 15:21:00,
2013-05-30 11:26:00,83.6,69.7,29.97,SSE,167,7.0,17.0,63,0.00,,,0.00,VWS V14.01,2013-05-30 15:26:00,
2013-05-30 11:30:00,83.8,68.4,29.97,SSE,165,5.0,9.0,60,0.00,,,0.00,VWS V14.01,2013-05-30 15:30:00,
2013-05-30 11:35:00,84.3,68.4,29.97,ESE,122,9.0,13.0,59,0.00,,,0.00,VWS V14.01,2013-05-30 15:35:00,
2013-05-30 11:40:00,84.1,68.7,29.97,SSE,167,3.0,14.0,60,0.00,,,0.00,VWS V14.01,2013-05-30 15:40:00,
2013-05-30 11:45:00,84.2,68.3,29.97,South,186,9.0,14.0,59,0.00,,,0.00,VWS V14.01,2013-05-30 15:45:00,
2013-05-30 11:50:00,85.0,69.6,29.96,SSE,160,3.0,14.0,60,0.00,,,0.00,VWS V14.01,2013-05-30 15:50:00,
2013-05-30 11:55:00,85.0,68.6,29.96,South,173,7.0,14.0,58,0.00,,,0.00,VWS V14.01,2013-05-30 15:55:00,
2013-05-30 12:00:00,84.9,68.0,29.97,South,181,10.0,19.0,57,0.00,,,0.00,VWS V14.01,2013-05-30 16:00:00,
2013-05-30 12:05:00,84.5,68.1,29.96,SSW,203,5.0,19.0,58,0.00,,,0.00,VWS V14.01,2013-05-30 16:05:00,
2013-05-30 12:10:00,84.6,67.7,29.97,West,281,5.0,22.0,57,0.00,,,0.00,VWS V14.01,2013-05-30 16:10:00,
2013-05-30 12:15:00,85.0,68.6,29.96,SW,229,7.0,22.0,58,0.00,,,0.00,VWS V14.01,2013-05-30 16:15:00,
2013-05-30 12:20:00,85.2,68.8,29.97,SSW,198,6.0,22.0,58,0.00,,,0.00,VWS V14.01,2013-05-30 16:20:00,
2013-05-30 12:25:00,85.4,68.4,29.97,East,101,2.0,22.0,57,0.00,,,0.00,VWS V14.01,2013-05-30 16:25:00,
2013-05-30 12:30:00,85.3,67.8,29.97,SSW,194,5.0,14.0,56,0.00,,,0.00,VWS V14.01,2013-05-30 16:30:00,
2013-05-30 12:35:00,84.9,68.0,29.96,East,79,4.0,17.0,57,0.00,,,0.00,VWS V14.01,2013-05-30 16:35:00,
2013-05-30 12:40:00,84.8,67.9,29.96,SSE,167,2.0,17.0,57,0.00,,,0.00,VWS V14.01,2013-05-30 16:40:00,
2013-05-30 12:45:00,85.0,68.1,29.96,SE,126,11.0,17.0,57,0.00,,,0.00,VWS V14.01,2013-05-30 16:45:00,
2013-05-30 12:50:00,85.2,67.8,29.96,South,190,7.0,17.0,56,0.00,,,0.00,VWS V14.01,2013-05-30 16:50:00,
2013-05-30 12:55:00,85.2,68.3,29.96,SSW,195,4.0,17.0,57,0.00,,,0.00,VWS V14.01,2013-05-30 16:55:00,
2013-05-30 13:00:00,85.5,68.5,29.96,SW,221,2.0,12.0,57,0.00,,,0.00,VWS V14.01,2013-05-30 17:00:00,
2013-05-30 13:05:00,85.5,68.5,29.96,WNW,291,4.0,12.0,57,0.00,,,0.00,VWS V14.01,2013-05-30 17:05:00,
2013-05-30 13:10:00,85.4,69.0,29.96,SW,224,7.0,12.0,58,0.00,,,0.00,VWS V14.01,2013-05-30 17:10:00,
2013-05-30 13:15:00,85.2,68.8,29.96,SE,125,4.0,12.0,58,0.00,,,0.00,VWS V14.01,2013-05-30 17:15:00,
2013-05-30 13:20:00,84.9,68.5,29.96,SSW,207,7.0,13.0,58,0.00,,,0.00,VWS V14.01,2013-05-30 17:20:00,
2013-05-30 13:25:00,84.9,68.5,29.96,West,278,4.0,13.0,58,0.00,,,0.00,VWS V14.01,2013-05-30 17:25:00,
2013-05-30 13:30:00,84.9,68.0,29.96,SSE,153,9.0,14.0,57,0.00,,,0.00,VWS V14.01,2013-05-30 17:30:00,
2013-05-30 13:35:00,85.2,68.3,29.96,ESE,103,11.0,14.0,57,0.00,,,0.00,VWS V14.01,2013-05-30 17:35:00,
2013-05-30 13:40:00,85.0,68.1,29.96,South,190,9.0,15.0,57,0.00,,,0.00,VWS V14.01,2013-05-30 17:40:00,
2013-05-30 13:45:00,85.0,68.1,29.96,SSE,162,12.0,15.0,57,0.00,,,0.00,VWS V14.01,2013-05-30 17:45:00,
2013-05-30 13:50:00,84.9,68.0,29.95,SW,228,4.0,15.0,57,0.00,,,0.00,VWS V14.01,2013-05-30 17:50:00,
2013-05-30 13:55:00,85.4,67.9,29.95,South,181,4.0,22.0,56,0.00,,,0.00,VWS V14.01,2013-05-30 17:55:00,
2013-05-30 14:00:00,85.9,68.9,29.95,South,184,4.0,13.0,57,0.00,,,0.00,VWS V14.01,2013-05-30 18:00:00,
2013-05-30 14:05:00,86.2,68.2,29.95,SSW,204,4.0,13.0,55,0.00,,,0.00,VWS V14.01,2013-05-30 18:05:00,
2013-05-30 14:10:00,86.0,68.5,29.95,SSE,159,6.0,13.0,56,0.00,,,0.00,VWS V14.01,2013-05-30 18:10:00,
2013-05-30 14:15:00,85.9,68.4,29.95,SE,145,8.0,14.0,56,0.00,,,0.00,VWS V14.01,2013-05-30 18:15:00,
2013-05-30 14:20:00,85.7,68.2,29.95,SW,220,4.0,15.0,56,0.00,,,0.00,VWS V14.01,2013-05-30 18:20:00,
2013-05-30 14:25:00,85.7,68.2,29.94,NNW,330,7.0,15.0,56,0.00,,,0.00,VWS V14.01,2013-05-30 18:25:00,
2013-05-30 14:30:00,85.6,68.6,29.94,SE,145,2.0,15.0,57,0.00,,,0.00,VWS V14.01,2013-05-30 18:30:00,
2013-05-30 14:35:00,86.2,68.7,29.94,SE,139,6.0,15.0,56,0.00,,,0.00,VWS V14.01,2013-05-30 18:35:00,
2013-05-30 14:40:00,86.9,69.3,29.94,South,173,3.0,17.0,56,0.00,,,0.00,VWS V14.01,2013-05-30 18:40:00,
2013-05-30 14:45:00,87.7,69.5,29.94,South,187,4.0,17.0,55,0.00,,,0.00,VWS V14.01,2013-05-30 18:45:00,
2013-05-30 14:50:00,87.3,68.6,29.93,SW,223,4.0,17.0,54,0.00,,,0.00,VWS V14.01,2013-05-30 18:50:00,
2013-05-30 14:55:00,87.2,69.1,29.94,SSW,207,12.0,17.0,55,0.00,,,0.00,VWS V14.01,2013-05-30 18:55:00,
2013-05-30 15:00:00,86.8,68.7,29.94,SSE,159,8.0,15.0,55,0.00,,,0.00,VWS V14.01,2013-05-30 19:00:00,
2013-05-30 15:05:00,85.9,68.4,29.94,SSW,193,7.0,15.0,56,0.00,,,0.00,VWS V14.01,2013-05-30 19:05:00,
2013-05-30 15:10:00,85.8,67.8,29.93,SW,225,4.0,15.0,55,0.00,,,0.00,VWS V14.01,2013-05-30 19:10:00,
2013-05-30 15:15:00,86.5,69.0,29.93,SE,142,7.0,15.0,56,0.00,,,0.00,VWS V14.01,2013-05-30 19:15:00,
2013-05-30 15:20:00,86.0,68.0,29.93,SSW,211,1.0,15.0,55,0.00,,,0.00,VWS V14.01,2013-05-30 19:20:00,
2013-05-30 15:25:00,85.3,67.8,29.93,South,176,8.0,15.0,56,0.00,,,0.00,VWS V14.01,2013-05-30 19:25:00,
2013-05-30 15:30:00,83.8,70.3,29.93,NNW,340,1.0,6.0,64,0.00,,,0.00,VWS V14.01,2013-05-30 19:30:00,
2013-05-30 15:35:00,82.6,71.0,29.93,WNW,290,4.0,6.0,68,0.00,,,0.00,VWS V14.01,2013-05-30 19:35:00,
2013-05-30 15:40:00,82.1,70.5,29.93,South,188,6.0,8.0,68,0.01,,,0.01,VWS V14.01,2013-05-30 19:40:00,
2013-05-30 15:45:00,82.2,71.0,29.92,SSW,193,4.0,10.0,69,0.01,,,0.01,VWS V14.01,2013-05-30 19:45:00,
2013-05-30 15:50:00,82.5,70.0,29.92,SSW,197,4.0,10.0,66,0.01,,,0.01,VWS V14.01,2013-05-30 19:50:00,
2013-05-30 15:55:00,82.9,69.5,29.93,South,180,2.0,10.0,64,0.01,,,0.01,VWS V14.01,2013-05-30 19:55:00,
2013-05-30 16:00:00,83.4,69.0,29.92,South,173,7.0,12.0,62,0.01,,,0.01,VWS V14.01,2013-05-30 20:00:00,
2013-05-30 16:05:00,83.2,68.8,29.92,SE,146,6.0,12.0,62,0.01,,,0.01,VWS V14.01,2013-05-30 20:05:00,
2013-05-30 16:10:00,82.9,69.0,29.92,South,187,3.0,12.0,63,0.01,,,0.01,VWS V14.01,2013-05-30 20:10:00,
2013-05-30 16:15:00,82.8,69.4,29.92,ESE,117,7.0,12.0,64,0.01,,,0.01,VWS V14.01,2013-05-30 20:15:00,
2013-05-30 16:20:00,83.6,70.6,29.92,SE,128,4.0,12.0,65,0.01,,,0.01,VWS V14.01,2013-05-30 20:20:00,
2013-05-30 16:25:00,84.4,69.0,29.91,SSE,158,2.0,12.0,60,0.01,,,0.01,VWS V14.01,2013-05-30 20:25:00,
2013-05-30 16:30:00,85.0,68.1,29.91,SSE,155,7.0,13.0,57,0.01,,,0.01,VWS V14.01,2013-05-30 20:30:00,
2013-05-30 16:35:00,85.5,69.1,29.91,ESE,113,6.0,13.0,58,0.01,,,0.01,VWS V14.01,2013-05-30 20:35:00,
2013-05-30 16:40:00,85.2,69.3,29.91,SE,134,8.0,15.0,59,0.01,,,0.01,VWS V14.01,2013-05-30 20:40:00,
2013-05-30 16:45:00,85.6,69.6,29.91,NW,315,2.0,15.0,59,0.01,,,0.01,VWS V14.01,2013-05-30 20:45:00,
2013-05-30 16:50:00,85.9,67.9,29.90,WSW,255,7.0,16.0,55,0.01,,,0.01,VWS V14.01,2013-05-30 20:50:00,
2013-05-30 16:55:00,85.8,67.8,29.90,SW,217,6.0,16.0,55,0.01,,,0.01,VWS V14.01,2013-05-30 20:55:00,
2013-05-30 17:00:00,85.9,67.9,29.90,SW,232,6.0,15.0,55,0.00,,,0.01,VWS V14.01,2013-05-30 21:00:00,
2013-05-30 17:06:00,86.3,69.0,29.90,South,187,3.0,15.0,56,0.00,,,0.01,weatherlink.com 1.10,2013-05-30 21:06:00,
2013-05-30 17:11:00,86.4,68.3,29.89,SE,145,9.0,15.0,55,0.00,,,0.01,VWS V14.01,2013-05-30 21:11:00,
2013-05-30 17:16:00,86.1,68.6,29.89,SE,145,3.0,15.0,56,0.00,,,0.01,VWS V14.01,2013-05-30 21:16:00,
2013-05-30 17:21:00,86.2,69.7,29.89,SSW,193,2.0,15.0,58,0.00,,,0.01,VWS V14.01,2013-05-30 21:21:00,
2013-05-30 17:26:00,86.6,69.1,29.89,SE,136,8.0,15.0,56,0.00,,,0.01,VWS V14.01,2013-05-30 21:26:00,
2013-05-30 17:30:00,86.6,68.5,29.89,SE,134,5.0,15.0,55,0.00,,,0.01,VWS V14.01,2013-05-30 21:30:00,
2013-05-30 17:31:00,86.6,68.0,29.88,SSE,164,2.0,15.0,54,0.00,,,0.01,VWS V14.01,2013-05-30 21:31:00,
2013-05-30 17:36:00,86.6,68.0,29.89,SSE,162,7.0,15.0,54,0.00,,,0.01,VWS V14.01,2013-05-30 21:36:00,
2013-05-30 17:41:00,86.6,68.0,29.89,WSW,249,6.0,20.0,54,0.00,,,0.01,VWS V14.01,2013-05-30 21:41:00,
2013-05-30 17:46:00,86.3,66.6,29.89,SE,131,3.0,20.0,52,0.00,,,0.01,VWS V14.01,2013-05-30 21:46:00,
2013-05-30 17:51:00,85.7,67.2,29.89,WNW,283,6.0,20.0,54,0.00,,,0.01,VWS V14.01,2013-05-30 21:51:00,
2013-05-30 17:56:00,85.2,66.7,29.89,WSW,250,2.0,20.0,54,0.00,,,0.01,VWS V14.01,2013-05-30 21:56:00,
2013-05-30 18:00:00,85.2,67.2,29.89,South,176,8.0,20.0,55,0.00,,,0.01,VWS V14.01,2013-05-30 22:00:00,
2013-05-30 18:01:00,85.3,67.3,29.89,SSE,162,3.0,10.0,55,0.00,,,0.01,VWS V14.01,2013-05-30 22:01:00,
2013-05-30 18:06:00,85.6,67.1,29.89,SE,132,8.0,14.0,54,0.00,,,0.01,VWS V14.01,2013-05-30 22:06:00,
2013-05-30 18:11:00,85.6,67.6,29.88,South,172,5.0,15.0,55,0.00,,,0.01,VWS V14.01,2013-05-30 22:11:00,
2013-05-30 18:16:00,85.5,67.5,29.89,East,95,7.0,15.0,55,0.00,,,0.01,VWS V14.01,2013-05-30 22:16:00,
2013-05-30 18:21:00,85.2,66.7,29.89,SE,134,4.0,15.0,54,0.00,,,0.01,VWS V14.01,2013-05-30 22:21:00,
2013-05-30 18:26:00,85.3,66.8,29.89,SE,133,3.0,15.0,54,0.00,,,0.01,VWS V14.01,2013-05-30 22:26:00,
2013-05-30 18:30:00,85.3,66.8,29.89,SE,146,5.0,15.0,54,0.00,,,0.01,VWS V14.01,2013-05-30 22:30:00,
2013-05-30 18:31:00,85.2,66.7,29.89,SSW,194,7.0,13.0,54,0.00,,,0.01,VWS V14.01,2013-05-30 22:31:00,
2013-05-30 18:36:00,85.2,67.2,29.89,SSE,152,2.0,13.0,55,0.00,,,0.01,VWS V14.01,2013-05-30 22:36:00,
2013-05-30 18:41:00,85.3,67.3,29.88,South,176,5.0,13.0,55,0.00,,,0.01,VWS V14.01,2013-05-30 22:41:00,
2013-05-30 18:46:00,85.1,67.1,29.88,ESE,110,4.0,13.0,55,0.00,,,0.01,VWS V14.01,2013-05-30 22:46:00,
2013-05-30 18:51:00,84.6,67.2,29.88,SE,146,4.0,13.0,56,0.00,,,0.01,VWS V14.01,2013-05-30 22:51:00,
2013-05-30 18:56:00,84.5,67.6,29.87,SE,145,1.0,13.0,57,0.00,,,0.01,VWS V14.01,2013-05-30 22:56:00,
2013-05-30 19:00:00,84.5,67.6,29.87,SE,139,4.0,13.0,57,0.00,,,0.01,VWS V14.01,2013-05-30 23:00:00,
2013-05-30 19:01:00,84.1,67.2,29.87,South,171,9.0,12.0,57,0.00,,,0.01,VWS V14.01,2013-05-30 23:01:00,
2013-05-30 19:06:00,83.7,66.9,29.87,SE,142,5.0,12.0,57,0.00,,,0.01,VWS V14.01,2013-05-30 23:06:00,
2013-05-30 19:11:00,83.4,67.1,29.87,SE,125,6.0,12.0,58,0.00,,,0.01,VWS V14.01,2013-05-30 23:11:00,
2013-05-30 19:16:00,83.1,66.8,29.87,SE,136,7.0,12.0,58,0.00,,,0.01,VWS V14.01,2013-05-30 23:16:00,
2013-05-30 19:21:00,82.9,66.6,29.87,SE,131,4.0,17.0,58,0.00,,,0.01,VWS V14.01,2013-05-30 23:21:00,
2013-05-30 19:26:00,82.7,66.9,29.87,SE,136,7.0,17.0,59,0.00,,,0.01,VWS V14.01,2013-05-30 23:26:00,
2013-05-30 19:30:00,82.7,66.9,29.87,SE,141,4.0,17.0,59,0.00,,,0.01,VWS V14.01,2013-05-30 23:30:00,
2013-05-30 19:31:00,82.5,67.2,29.87,SSE,148,4.0,12.0,60,0.00,,,0.01,VWS V14.01,2013-05-30 23:31:00,
2013-05-30 19:36:00,82.3,67.0,29.87,South,186,4.0,12.0,60,0.00,,,0.01,VWS V14.01,2013-05-30 23:36:00,
2013-05-30 19:41:00,82.2,66.9,29.86,South,173,3.0,13.0,60,0.00,,,0.01,VWS V14.01,2013-05-30 23:41:00,
2013-05-30 19:46:00,82.1,66.8,29.86,NW,319,3.0,13.0,60,0.00,,,0.01,VWS V14.01,2013-05-30 23:46:00,
2013-05-30 19:51:00,81.9,66.7,29.86,ESE,120,4.0,13.0,60,0.00,,,0.01,VWS V14.01,2013-05-30 23:51:00,
2013-05-30 19:56:00,81.7,66.9,29.86,South,176,6.0,13.0,61,0.00,,,0.01,VWS V14.01,2013-05-30 23:56:00,
2013-05-30 20:00:00,81.7,66.9,29.86,SW,214,4.0,13.0,61,0.00,,,0.01,VWS V14.01,2013-05-31 00:00:00,
2013-05-30 20:01:00,81.6,66.9,29.85,SSE,150,8.0,8.0,61,0.00,,,0.01,VWS V14.01,2013-05-31 00:01:00,
2013-05-30 20:06:00,81.4,67.1,29.86,SSE,160,3.0,8.0,62,0.00,,,0.01,VWS V14.01,2013-05-31 00:06:00,
2013-05-30 20:11:00,81.3,67.5,29.86,SE,145,8.0,8.0,63,0.00,,,0.01,VWS V14.01,2013-05-31 00:11:00,
2013-05-30 20:16:00,81.1,67.8,29.86,South,185,4.0,11.0,64,0.00,,,0.01,VWS V14.01,2013-05-31 00:16:00,
2013-05-30 20:21:00,81.0,67.7,29.87,ESE,115,2.0,11.0,64,0.00,,,0.01,VWS V14.01,2013-05-31 00:21:00,
2013-05-30 20:26:00,81.0,67.7,29.87,SSE,149,3.0,11.0,64,0.00,,,0.01,VWS V14.01,2013-05-31 00:26:00,
2013-05-30 20:30:00,80.9,67.6,29.87,SE,129,3.0,11.0,64,0.00,,,0.01,VWS V14.01,2013-05-31 00:30:00,
2013-05-30 20:31:00,80.9,67.6,29.87,SSE,150,2.0,9.0,64,0.00,,,0.01,VWS V14.01,2013-05-31 00:31:00,
2013-05-30 20:36:00,80.8,67.5,29.86,SE,130,5.0,13.0,64,0.00,,,0.01,VWS V14.01,2013-05-31 00:36:00,
2013-05-30 20:41:00,80.8,67.9,29.86,SE,140,6.0,13.0,65,0.00,,,0.01,VWS V14.01,2013-05-31 00:41:00,
2013-05-30 20:46:00,80.7,67.8,29.86,South,181,4.0,13.0,65,0.00,,,0.01,VWS V14.01,2013-05-31 00:46:00,
2013-05-30 20:51:00,80.6,67.8,29.86,East,96,2.0,14.0,65,0.00,,,0.01,VWS V14.01,2013-05-31 00:51:00,
2013-05-30 20:56:00,80.5,67.7,29.86,East,79,6.0,14.0,65,0.00,,,0.01,VWS V14.01,2013-05-31 00:56:00,
2013-05-30 21:01:00,80.3,67.5,29.86,ESE,115,8.0,14.0,65,0.00,,,0.01,VWS V14.01,2013-05-31 01:01:00,
2013-05-30 21:06:00,80.1,67.7,29.87,SE,134,3.0,14.0,66,0.00,,,0.01,VWS V14.01,2013-05-31 01:06:00,
2013-05-30 21:11:00,80.0,67.6,29.87,SSW,210,3.0,14.0,66,0.00,,,0.01,VWS V14.01,2013-05-31 01:11:00,
2013-05-30 21:16:00,79.8,67.4,29.87,South,172,5.0,14.0,66,0.00,,,0.01,VWS V14.01,2013-05-31 01:16:00,
2013-05-30 21:21:00,79.7,67.8,29.87,SSE,148,3.0,14.0,67,0.00,,,0.01,VWS V14.01,2013-05-31 01:21:00,
2013-05-30 21:26:00,79.5,67.6,29.88,SSE,156,4.0,14.0,67,0.00,,,0.01,VWS V14.01,2013-05-31 01:26:00,
2013-05-30 21:30:00,79.5,67.6,29.88,SE,142,2.0,14.0,67,0.00,,,0.01,VWS V14.01,2013-05-31 01:30:00,
2013-05-30 21:31:00,79.4,67.9,29.88,SE,142,3.0,6.0,68,0.00,,,0.01,VWS V14.01,2013-05-31 01:31:00,
2013-05-30 21:36:00,79.2,68.2,29.89,SSE,148,2.0,7.0,69,0.00,,,0.01,VWS V14.01,2013-05-31 01:36:00,
2013-05-30 21:41:00,79.1,68.5,29.89,SSE,148,2.0,8.0,70,0.00,,,0.01,VWS V14.01,2013-05-31 01:41:00,
2013-05-30 21:46:00,79.0,68.4,29.89,SE,125,3.0,8.0,70,0.00,,,0.01,VWS V14.01,2013-05-31 01:46:00,
2013-05-30 21:51:00,78.9,68.7,29.89,SE,142,1.0,8.0,71,0.00,,,0.01,VWS V14.01,2013-05-31 01:51:00,
2013-05-30 21:56:00,78.8,69.0,29.89,SSE,150,9.0,9.0,72,0.00,,,0.01,VWS V14.01,2013-05-31 01:56:00,
2013-05-30 22:00:00,78.8,69.0,29.89,South,191,3.0,9.0,72,0.00,,,0.01,VWS V14.01,2013-05-31 02:00:00,
2013-05-30 22:01:00,78.7,68.9,29.89,South,177,2.0,9.0,72,0.00,,,0.01,VWS V14.01,2013-05-31 02:01:00,
2013-05-30 22:06:00,78.6,68.8,29.89,SSE,150,3.0,9.0,72,0.00,,,0.01,VWS V14.01,2013-05-31 02:06:00,
2013-05-30 22:11:00,78.5,68.7,29.89,SE,139,3.0,11.0,72,0.00,,,0.01,VWS V14.01,2013-05-31 02:11:00,
2013-05-30 22:16:00,78.4,68.6,29.90,SSE,148,5.0,11.0,72,0.00,,,0.01,VWS V14.01,2013-05-31 02:16:00,
2013-05-30 22:21:00,78.3,68.5,29.90,South,188,3.0,11.0,72,0.00,,,0.01,VWS V14.01,2013-05-31 02:21:00,
2013-05-30 22:26:00,78.2,68.0,29.90,SE,145,3.0,11.0,71,0.00,,,0.01,VWS V14.01,2013-05-31 02:26:00,
2013-05-30 22:30:00,78.2,68.0,29.90,SSE,168,3.0,11.0,71,0.00,,,0.01,VWS V14.01,2013-05-31 02:30:00,
2013-05-30 22:31:00,78.1,67.9,29.90,SE,135,2.0,6.0,71,0.00,,,0.01,VWS V14.01,2013-05-31 02:31:00,
2013-05-30 22:36:00,78.0,67.4,29.90,ESE,122,6.0,11.0,70,0.00,,,0.01,VWS V14.01,2013-05-31 02:36:00,
2013-05-30 22:41:00,78.0,67.4,29.91,SE,131,7.0,11.0,70,0.00,,,0.01,VWS V14.01,2013-05-31 02:41:00,
2013-05-30 22:46:00,77.9,67.3,29.90,SE,142,10.0,11.0,70,0.00,,,0.01,VWS V14.01,2013-05-31 02:46:00,
2013-05-30 22:51:00,77.9,67.3,29.90,South,176,8.0,11.0,70,0.00,,,0.01,VWS V14.01,2013-05-31 02:51:00,
2013-05-30 22:56:00,77.8,67.2,29.90,SE,134,6.0,11.0,70,0.00,,,0.01,VWS V14.01,2013-05-31 02:56:00,
2013-05-30 23:00:00,77.8,67.2,29.90,SSE,165,5.0,11.0,70,0.00,,,0.01,VWS V14.01,2013-05-31 03:00:00,
2013-05-30 23:01:00,77.7,67.6,29.90,SSE,168,6.0,9.0,71,0.00,,,0.01,VWS V14.01,2013-05-31 03:01:00,
2013-05-30 23:06:00,77.6,67.5,29.90,SSW,212,5.0,9.0,71,0.00,,,0.01,VWS V14.01,2013-05-31 03:06:00,
2013-05-30 23:11:00,77.5,67.4,29.90,SE,142,2.0,9.0,71,0.00,,,0.01,VWS V14.01,2013-05-31 03:11:00,
2013-05-30 23:16:00,77.4,67.7,29.91,SE,129,3.0,9.0,72,0.00,,,0.01,VWS V14.01,2013-05-31 03:16:00,
2013-05-30 23:21:00,77.2,67.5,29.91,ESE,123,2.0,9.0,72,0.00,,,0.01,VWS V14.01,2013-05-31 03:21:00,
2013-05-30 23:26:00,77.1,67.8,29.91,SSE,165,1.0,9.0,73,0.00,,,0.01,VWS V14.01,2013-05-31 03:26:00,
2013-05-30 23:30:00,77.0,67.7,29.91,South,180,2.0,9.0,73,0.00,,,0.01,VWS V14.01,2013-05-31 03:30:00,
2013-05-30 23:31:00,76.8,67.5,29.91,SSE,165,1.0,6.0,73,0.00,,,0.01,VWS V14.01,2013-05-31 03:31:00,
2013-05-30 23:36:00,76.7,67.8,29.91,SE,134,4.0,8.0,74,0.00,,,0.01,VWS V14.01,2013-05-31 03:36:00,
2013-05-30 23:41:00,76.7,67.8,29.91,SSE,168,2.0,8.0,74,0.00,,,0.01,VWS V14.01,2013-05-31 03:41:00,
2013-05-30 23:46:00,76.8,67.9,29.92,ESE,120,4.0,8.0,74,0.00,,,0.01,VWS V14.01,2013-05-31 03:46:00,
2013-05-30 23:51:00,76.9,68.0,29.91,SW,215,2.0,8.0,74,0.00,,,0.01,VWS V14.01,2013-05-31 03:51:00,
2013-05-30 23:56:00,77.1,68.2,29.91,South,182,3.0,11.0,74,0.00,,,0.01,VWS V14.01,2013-05-31 03:56:00,